Weather History for KAVL - June, 2014

Change the Weather History Date:

Thursday, June 19, 2014

  Actual Average Record
Temperature  
Mean Temperature 76 °F 71 °F  
Max Temperature 89 °F 82 °F 92 °F (1933)
Min Temperature 62 °F 61 °F 46 °F (1965)
Degree Days  
Heating Degree Days 0 0  
Month to date heating degree days 0 11  
Since 1 June heating degree days 0 11  
Since 1 July heating degree days 4294 4192  
Cooling Degree Days 11 7  
Month to date cooling degree days 128 97  
Year to date cooling degree days 209 155  
Since 1 June cooling degree days 128 97  
Growing Degree Days 26 (Base 50)    
Moisture  
Dew Point 63 °F    
Average Humidity 73    
Maximum Humidity 100    
Minimum Humidity 46    
Precipitation  
Precipitation 0.19 in 0.15 in 2.22 in (1991)
Month to date precipitation 2.08 2.91  
Year to date precipitation 18.59 21.16  
Snow  
Snow 0.00 in 0.00 in 0.00 in ()
Month to date snowfall 0.0 0.0  
Since 1 June snowfall 0.0 0.0  
Since 1 July snowfall 9.8 9.9  
Snow Depth 0.00 in    
Sea Level Pressure  
Sea Level Pressure 30.15 in    
Wind  
Wind Speed 4 mph (West)    
Max Wind Speed 17 mph    
Max Gust Speed 27 mph    
Visibility 8 miles    
Events Rain , Thunderstorm    
T = Trace of Precipitation, MM = Missing Value Source: NWS Daily Summary

Daily Weather History Graph

Daily Weather History Graph

Search for Another Location

Airport or City:

Trip Planner

Search our weather history database for the weather conditions in past years. The results will help you decide how hot, cold, wet, or windy it might be!

Date:

Astronomy

Jun. 19, 2014 Rise Set
Actual Time 6:14 AM EDT 8:48 PM EDT
Civil Twilight 5:45 AM EDT 9:18 PM EDT
Nautical Twilight 5:07 AM EDT 9:55 PM EDT
Astronomical Twilight 4:26 AM EDT 10:36 PM EDT
Moon 1:04 AM EDT (6/19) 1:29 PM EDT (6/19)
Length of Visible Light 15h 33m
Length of Day
14h 33m
Waning Gibbous, 51% of the Moon is Illuminated
Jun 19
Waning Gibbous
Jun 19
Last Quarter
Jun 27
New
Jul 5
First Quarter
Jul 12
Full

Hourly Weather History & Observations

Time (EDT) Temp. Heat Index Dew Point Humidity Pressure Visibility Wind Dir Wind Speed Gust Speed Precip Events Conditions
12:54 AM 66.0 °F - 64.0 °F 93% 30.14 in 10.0 mi SSW 3.5 mph - N/A   Clear
1:54 AM 66.0 °F - 63.0 °F 90% 30.14 in 10.0 mi Calm Calm - N/A   Clear
2:54 AM 64.9 °F - 63.0 °F 93% 30.13 in 10.0 mi NNW 4.6 mph - N/A   Clear
3:54 AM 64.0 °F - 62.1 °F 93% 30.12 in 10.0 mi Calm Calm - N/A   Clear
4:51 AM 62.6 °F - 60.8 °F 94% 30.20 in 10.0 mi Calm Calm - N/A   Scattered Clouds
4:54 AM 63.0 °F - 61.0 °F 93% 30.13 in 10.0 mi Calm Calm - N/A   Mostly Cloudy
5:06 AM 63.0 °F - 61.0 °F 93% 30.20 in 3.0 mi Calm Calm - N/A   Scattered Clouds
5:54 AM 62.6 °F - 60.8 °F 94% 30.21 in 9.0 mi Calm Calm - N/A   Clear
6:54 AM 64.0 °F - 61.0 °F 90% 30.16 in 10.0 mi NW 5.8 mph - N/A   Clear
7:54 AM 68.0 °F - 64.0 °F 87% 30.16 in 10.0 mi NW 4.6 mph - N/A   Clear
8:54 AM 72.0 °F - 64.0 °F 76% 30.16 in 10.0 mi NNW 8.1 mph - N/A   Clear
9:54 AM 77.0 °F - 64.9 °F 66% 30.15 in 10.0 mi North 8.1 mph - N/A   Clear
11:54 AM 82.9 °F 85.0 °F 66.0 °F 56% 30.14 in 10.0 mi NNW 5.8 mph - N/A   Clear
12:54 PM 84.0 °F 85.8 °F 64.9 °F 53% 30.13 in 10.0 mi North 10.4 mph - N/A   Partly Cloudy
1:54 PM 86.0 °F 87.6 °F 64.9 °F 49% 30.09 in 10.0 mi Variable 3.5 mph - N/A   Partly Cloudy
2:54 PM 87.1 °F 88.3 °F 64.0 °F 46% 30.07 in 10.0 mi North 9.2 mph - N/A   Partly Cloudy
3:13 PM 88.0 °F 89.3 °F 64.0 °F 45% 30.16 in 10.0 mi NNW 9.2 mph - N/A Thunderstorm Partly Cloudy
3:26 PM 88.0 °F 87.6 °F 60.1 °F 39% 30.15 in 6.0 mi Variable 4.6 mph - N/A Thunderstorm Unknown
3:47 PM 77.0 °F - 60.1 °F 56% 30.17 in 6.0 mi SW 11.5 mph 17.3 mph N/A Thunderstorm Haze
3:54 PM 75.0 °F - 59.0 °F 57% 30.10 in 6.0 mi WSW 10.4 mph - N/A Thunderstorm Haze
4:14 PM 73.9 °F - 60.1 °F 62% 30.19 in 10.0 mi South 12.7 mph - N/A Thunderstorm Thunderstorm
4:29 PM 73.0 °F - 63.0 °F 71% 30.21 in 10.0 mi South 13.8 mph - 0.00 in Rain , Thunderstorm Light Rain
4:45 PM 68.0 °F - 60.8 °F 78% 30.20 in 2.5 mi West 16.1 mph 26.5 mph N/A Rain , Thunderstorm Heavy Thunderstorms and Rain
4:54 PM 68.0 °F - 62.1 °F 81% 30.13 in 2.5 mi West 8.1 mph 24.2 mph 0.12 in Rain , Thunderstorm Heavy Thunderstorms and Rain
5:02 PM 68.0 °F - 64.0 °F 87% 30.19 in 2.5 mi South 5.8 mph - 0.06 in Rain , Thunderstorm Rain
5:21 PM 68.0 °F - 63.0 °F 84% 30.20 in 2.5 mi SSE 4.6 mph - 0.06 in Rain , Thunderstorm Light Thunderstorms and Rain
5:42 PM 68.0 °F - 64.9 °F 90% 30.21 in 4.0 mi South 3.5 mph - 0.06 in Rain , Thunderstorm Light Rain
5:54 PM 68.0 °F - 64.0 °F 87% 30.15 in 4.0 mi SSW 3.5 mph - 0.07 in Rain Light Rain
6:54 PM 68.0 °F - 64.0 °F 87% 30.14 in 10.0 mi North 4.6 mph - 0.00 in   Clear
7:54 PM 68.0 °F - 64.9 °F 90% 30.12 in 10.0 mi Calm Calm - N/A   Clear
8:54 PM 69.1 °F - 64.9 °F 87% 30.09 in 10.0 mi WSW 4.6 mph - N/A   Scattered Clouds
9:54 PM 66.9 °F - 64.9 °F 93% 30.10 in 10.0 mi Calm Calm - N/A   Clear
10:54 PM 66.0 °F - 64.0 °F 93% 30.11 in 10.0 mi Calm Calm - N/A   Clear
11:37 PM 64.9 °F - 64.0 °F 97% 30.18 in 2.5 mi Calm Calm - N/A   Scattered Clouds
11:46 PM 64.9 °F - 64.0 °F 97% 30.18 in 1.8 mi Calm Calm - N/A   Mostly Cloudy
11:51 PM 64.4 °F - 64.4 °F 100% 30.18 in 3.0 mi Calm Calm - N/A   Mostly Cloudy
11:54 PM 64.9 °F - 64.0 °F 97% 30.10 in 5.0 mi Calm Calm - N/A   Mostly Cloudy